Regional Weather Roundup
Issued by NWS

Home | Current Version | Previous Version | Text Only | Print | Product List | Glossary Off
Versions: 1 2 3 4 5 6 7 8 9 10 11 12 13 14 15 16 17 18 19 20 21 22 23 24 25 26 27 28 29 30 31 32 33 34 35 36 37 38 39 40 41 42 43 44 45 46 47 48 49 50

000
ASUS43 KOAX 020902
RWRNE

WEATHER ROUNDUP FOR NEBRASKA
NATIONAL WEATHER SERVICE OMAHA NE
400 AM CDT SUN AUG 02 2015

NOTES: SATELLITE DATA IS BEING USED TO AUGMENT CLOUD COVER ABOVE
       12000 FEET.
       "FAIR" INDICATES FEW OR NO CLOUDS BELOW 12,000 FEET WITH NO
       SIGNIFICANT WEATHER AND/OR OBSTRUCTIONS TO VISIBILITY.

  * THESE STATIONS DO NOT REPORT WEATHER SUCH AS RAIN...SNOW OR FOG.

NEZ001>004-019>022-054>056-021000-
NEBRASKA PANHANDLE

CITY           SKY/WX    TMP DP  RH WIND       PRES   REMARKS
SCOTTSBLUFF    CLEAR     64  57  78 N7        30.00F
ALLIANCE       CLEAR     62  55  77 W3        29.99F
CHADRON        CLEAR     66  55  67 W6        29.93F
KIMBALL        MOCLDY    65  55  70 S5        30.04S
SIDNEY         MOCLDY    62  55  77 SW8       30.04F
$$

NEZ057>060-069>072-079>082-021000-
SOUTHWEST NEBRASKA

CITY           SKY/WX    TMP DP  RH WIND       PRES   REMARKS
NORTH PLATTE   MOCLDY    61  58  90 CALM      29.95F
IMPERIAL       MOCLDY    67  58  72 CALM      29.97F
MCCOOK         PTCLDY    68  60  75 CALM      29.94S
$$

NEZ005>010-023>029-035>040-094-021000-
NORTH CENTRAL NEBRASKA

CITY           SKY/WX    TMP DP  RH WIND       PRES   REMARKS
BROKEN BOW     PTCLDY    60  58  92 CALM      29.93F
O`NEILL        CLEAR     64  60  90 SW9       29.85F
ORD            CLEAR     63  61  93 CALM      29.87F
$$

NEZ041-046>049-061>064-073>077-083>087-021000-
SOUTH CENTRAL NEBRASKA

CITY           SKY/WX    TMP DP  RH WIND       PRES   REMARKS
GRAND ISLAND   PTCLDY    68  65  90 W6        29.91S
AURORA         PTCLDY    70  67  92 SW8       29.89F
HASTINGS       PTCLDY    70  63  78 SW6       29.91F
KEARNEY *      MOCLDY    70  61  73 W5        29.92S
$$

NEZ011>018-030>034-042>045-021000-
NORTHEAST NEBRASKA

CITY           SKY/WX    TMP DP  RH WIND       PRES   REMARKS
NORFOLK        PTCLDY    63  62  97 SW5       29.84F
ALBION         CLEAR     67  64  89 S3        29.86F
BLAIR          PTCLDY    73  69  87 S13       29.84F
COLUMBUS *     PTCLDY    75  61  60 SW10      29.85S
TEKAMAH        TSTM      74  71  91 SW22G29   29.83S FOG
$$

NEZ050>053-065>068-078-088>093-021000-
SOUTHEAST NEBRASKA

CITY           SKY/WX    TMP DP  RH WIND       PRES   REMARKS
LINCOLN        PTCLDY    74  68  81 S7        29.88S
OMAHA EPPLEY   CLOUDY    74  69  85 S10       29.85F
BEATRICE       CLEAR     74  68  82 S10       29.89F
FALLS CITY     CLEAR     72  67  84 S10       29.89F
NEBRASKA CITY  PTCLDY    70  69  97 S9        29.88F
$$

NEZ044-045-051>053-067-021000-
OMAHA AREA

CITY           SKY/WX    TMP DP  RH WIND       PRES   REMARKS
OMAHA EPPLEY   CLOUDY    74  69  85 S10       29.85F
BLAIR          PTCLDY    73  69  87 S13       29.84F
WAHOO          FAIR      70  68  92 CALM      29.87R
$$



USA.gov is the U.S. government's official web portal to all federal, state and local government web resources and services.